SCP
0 0 -0 -0 -0 -0 -0 0 0 0 0 0 0 0 0 0 0 0 0 0 0 0 0 0 0 0 0 0 0 0 0 1 0 0 0 0 0 0 0 0 0 0 0
0 0 0 -0 -0 -0 -0 0 0 0 0 0 0 0 0 0 0 0 0 0 0 0 0 0 0 0 0 0 0 0 1 1 1 0 0 0 0 0 0 0 0 0 0
0 0 0 0 0 0 0 -0 0 0 0 0 0 0 0 0 0 0 0 0 0 0 0 0 0 0 0 0 0 0 1 1 1 0 1 0 0 0 0 0 0 0 0
0 0 0 0 0 0 0 0 0 0 0 0 0 0 0 0 0 0 0 0 0 0 0 0 0 1 0 0 0 0 1 1 0 0 1 1 0 0 0 0 0 0 0
0 0 0 0 0 0 0 0 0 0 0 0 0 0 0 0 0 0 0 0 0 0 0 0 0 0 0 0 0 0 0 1 0 0 1 1 1 0 0 0 0 0 0
0 0 0 0 0 0 0 0 0 0 0 0 0 0 0 0 0 0 0 0 0 0 0 0 0 0 0 0 0 1 1 1 1 1 1 1 0 0 0 0 0 0 0
0 0 0 0 0 0 0 0 0 0 0 0 0 0 0 0 0 0 0 0 0 0 0 0 0 0 0 0 0 0 1 1 1 1 0 1 1 1 0 0 0 0 0
0 0 0 0 0 0 0 0 0 0 0 0 0 0 0 0 0 0 0 0 0 0 0 0 0 0 0 0 0 0 0 0 0 1 1 1 1 1 0 0 0 0 0
0 0 0 0 0 0 0 0 0 0 0 0 0 0 0 0 0 0 0 0 0 0 0 0 0 0 0 0 0 0 0 0 0 1 1 1 0 0 0 0 0 0 0
0 0 0 0 0 0 0 0 0 0 0 0 0 0 0 0 0 0 0 0 0 0 0 0 0 0 0 0 0 0 0 0 0 1 1 1 0 0 0 0 0 0 0
0 0 0 0 0 0 0 0 0 0 0 0 0 0 0 0 0 0 0 0 0 0 0 0 0 0 0 0 0 0 0 0 1 0 1 0 0 0 0 0 0 0 0
0 0 0 0 0 0 0 0 0 0 0 0 0 0 0 0 0 0 0 0 0 0 0 0 0 0 0 0 0 0 0 1 1 1 1 0 0 0 0 0 0 0 0
0 0 0 0 0 0 0 0 0 0 0 0 0 0 0 0 0 0 0 0 0 0 0 0 0 0 0 0 0 0 0 1 1 0 0 0 0 0 0 0 0 0 0
0 0 0 0 0 0 0 0 0 0 0 0 0 0 0 0 0 0 0 0 0 0 0 0 0 0 0 0 0 0 0 0 1 0 0 0 0 0 1 0 0 0 -0
0 0 0 0 0 0 0 0 0 0 0 0 0 0 0 0 0 0 0 0 0 0 0 0 0 0 0 0 0 0 0 0 0 0 0 0 0 0 0 0 0 -0 0
0 0 0 0 0 0 0 0 0 0 0 0 0 0 0 0 0 0 0 0 0 0 0 0 0 0 0 -0 -0 0 0 0 0 0 0 0 0 0 0 -0 0 -0 -0
0 0 0 0 0 0 0 0 0 0 0 0 0 0 0 0 0 0 0 0 0 0 0 0 0 0 0 0 0 0 0 0 0 0 0 0 0 0 0 0 0 0 -0
0 0 0 0 0 0 0 0 0 0 0 0 0 0 0 0 0 0 0 0 0 0 0 -0 0 0 0 0 0 0 0 0 0 0 0 0 0 0 0 0 0 -0 -0
0 0 0 0 0 0 0 0 0 0 0 0 0 0 0 0 0 0 0 0 0 0 0 0 0 0 0 0 0 0 0 0 0 0 0 0 0 0 0 0 0 0 0
0 0 0 0 0 0 0 0 0 0 0 0 0 0 0 0 0 0 0 0 0 -0 -0 -0 0 0 0 0 0 0 0 0 0 0 0 0 0 0 0 0 0 0 0
0 0 0 0 0 0 0 0 0 0 0 0 0 0 0 0 0 0 0 0 -0 0 0 -0 0 0 0 0 0 0 0 0 0 0 0 0 0 0 0 0 0 0 0
0 0 0 0 0 0 0 0 0 0 0 0 0 0 0 0 0 0 0 0 -0 -0 -0 0 0 0 0 0 0 0 0 0 0 0 0 0 0 0 0 0 0 0 0
0 0 0 0 0 0 0 0 0 0 0 0 0 0 0 -0 0 0 0 0 0 -0 -0 -0 -0 -0 -0 0 0 0 0 0 0 0 0 0 0 0 0 0 0 0 0
0 0 0 0 0 0 0 0 0 0 0 0 0 0 0 -0 0 0 0 0 0 -0 -0 -0 -0 -0 -0 0 -0 -0 -0 0 0 0 0 0 0 0 0 0 0 0 0
0 0 0 0 0 0 0 0 0 0 0 0 0 0 0 -0 -0 0 0 0 0 0 -0 -0 -0 -0 -0 -0 -0 -0 -0 0 0 0 0 0 0 0 0 0 0 0 0
0 0 0 0 0 0 0 0 0 0 0 0 0 0 0 0 -0 -0 0 0 0 0 0 0 -0 0 -0 -0 -0 0 -0 -0 -0 0 0 0 0 0 0 0 0 0 0
Wind_Speed_500mb
35 33 31 30 26 26 25 23 17 14 14 13 15 15 16 17 19 21 23 25 25 24 23 23 22 24 25 28 29 29 30 36 34 28 26 21 18 23 24 29 24 21 21
30 32 34 31 30 26 25 20 17 17 16 17 18 19 21 21 24 27 31 31 32 32 31 30 29 27 28 28 31 34 37 42 41 31 30 26 22 25 28 28 24 21 20
32 31 31 27 24 20 18 20 18 17 17 18 22 23 25 27 30 34 37 38 38 40 38 38 37 31 33 33 32 34 40 47 45 38 34 31 28 28 30 28 24 22 22
35 29 26 20 16 17 18 18 17 18 20 22 24 29 32 36 38 40 42 44 45 46 45 46 45 38 41 39 38 37 42 51 47 44 40 37 33 33 32 28 24 23 26
35 27 22 18 16 17 18 18 19 19 22 25 30 34 36 38 38 39 39 40 42 44 47 51 54 52 51 45 43 42 43 50 49 48 45 42 35 36 33 30 26 26 29
28 27 22 17 16 17 18 18 18 21 25 29 33 34 35 37 39 40 43 45 46 48 50 52 55 60 58 53 49 48 48 55 55 53 49 45 40 37 37 33 27 28 31
26 27 23 19 17 17 18 17 20 24 27 30 31 33 36 39 42 45 48 51 53 55 57 56 58 60 66 67 48 53 52 52 61 55 51 50 47 42 40 37 33 34 37
21 21 21 18 16 18 18 19 22 25 27 30 31 33 37 41 45 49 53 56 59 60 62 63 63 63 64 66 69 54 56 60 59 55 54 53 51 47 46 44 42 40 41
25 23 21 18 18 18 18 20 22 25 28 29 32 36 41 45 50 53 52 50 49 51 52 52 57 63 66 66 66 74 63 63 67 62 60 58 55 52 51 50 48 44 43
28 28 25 22 20 19 18 19 22 25 26 29 34 38 44 49 48 45 44 44 45 45 32 29 31 34 46 63 66 64 78 64 67 71 74 72 65 58 57 55 53 51 48
34 33 28 25 20 19 19 21 22 24 27 31 36 42 47 45 41 40 39 39 31 31 27 28 29 33 37 42 50 63 64 82 64 68 69 77 67 64 61 58 54 53 50
34 30 27 25 20 20 20 21 21 26 29 34 39 44 44 40 38 37 33 27 27 28 28 33 36 29 25 30 35 41 55 63 71 50 60 60 62 66 62 57 56 51 49
31 29 26 24 22 21 21 21 24 28 32 37 42 43 39 36 36 35 30 28 27 27 27 32 27 19 21 29 30 30 37 44 70 62 53 54 56 64 59 57 51 59 57
36 30 27 27 24 23 22 22 27 30 34 39 42 39 36 35 36 31 26 24 24 24 26 20 22 25 28 25 17 14 20 32 42 52 41 46 56 63 64 55 51 52 49
39 34 31 30 26 24 24 24 29 32 36 40 40 35 34 32 29 21 18 18 18 18 16 21 24 22 15 4 9 11 19 25 24 26 32 41 55 58 60 35 31 57 68
39 38 35 33 28 26 24 25 30 32 36 39 35 31 29 24 23 20 12 9 14 9 14 17 15 16 24 17 15 13 13 23 17 14 21 36 50 37 35 57 51 44 75
38 40 38 32 28 24 24 26 29 33 36 34 29 28 22 22 21 19 10 7 6 10 10 15 15 20 22 14 19 17 18 20 26 21 19 18 29 43 42 34 38 46 60
40 43 38 33 27 24 23 25 27 31 32 28 27 24 22 22 18 11 6 3 15 12 13 13 16 28 23 17 18 20 24 23 28 26 29 32 37 35 36 39 43 52 56
40 43 39 32 28 23 22 23 25 28 26 26 25 21 19 15 8 6 18 20 16 17 13 18 23 25 22 22 29 18 16 10 10 17 26 26 28 29 36 17 54 55 51
38 42 38 32 30 24 20 20 23 24 22 26 20 17 11 6 8 23 21 15 15 19 16 18 20 20 29 26 27 27 13 3 14 14 18 22 20 25 25 28 48 62 46
34 39 39 32 27 20 17 18 20 19 20 22 17 10 4 10 22 23 17 16 21 21 17 13 31 35 34 26 29 33 33 36 22 24 25 26 24 23 25 40 38 40 64
33 39 36 31 23 17 17 17 17 16 18 15 10 4 6 18 23 18 20 19 20 18 16 24 35 30 28 27 32 34 26 42 45 55 25 43 35 37 45 52 62 65 53
34 36 33 28 20 14 16 17 14 13 16 8 5 3 11 22 22 16 18 19 19 19 18 25 22 27 25 23 30 17 15 16 41 56 51 55 54 41 46 46 51 45 44
35 35 31 23 15 14 13 14 13 11 9 4 0 6 16 23 20 10 13 23 15 17 16 21 21 19 26 27 13 11 3 42 28 29 55 51 54 57 52 47 47 42 38
36 35 29 19 12 13 11 13 12 9 5 2 4 9 18 22 19 9 12 18 18 14 16 20 19 24 20 17 1 15 15 29 35 43 54 58 45 48 50 50 48 43 38
35 30 22 15 11 11 12 11 11 9 5 6 7 9 16 20 16 8 5 14 22 19 17 15 22 23 18 15 6 2 3 14 31 45 55 69 67 57 51 47 47 41 38
Wind_Direction_500mb
184 179 179 173 180 181 191 200 210 227 238 244 248 253 261 266 270 273 273 270 267 264 263 262 261 262 257 251 244 228 224 212 207 206 204 194 183 186 179 162 158 148 140
179 177 179 170 181 187 206 217 231 243 253 257 262 266 271 271 273 274 272 271 267 263 260 259 259 262 263 257 245 235 225 210 207 204 194 195 198 187 173 164 162 154 144
185 181 181 187 201 212 212 220 234 252 260 262 269 275 279 279 276 273 273 273 269 264 260 258 256 256 262 259 250 240 228 214 213 206 202 199 200 191 181 178 175 171 162
187 188 189 197 210 212 214 224 239 253 263 270 275 279 279 278 277 276 275 273 269 266 262 257 252 249 249 252 249 243 230 220 217 212 209 208 205 195 190 190 184 175 166
184 195 201 207 215 215 220 234 245 255 266 274 276 276 279 282 283 281 279 276 273 270 266 258 252 247 245 246 244 238 229 219 219 213 212 212 207 201 195 193 189 181 173
184 198 202 215 224 223 231 241 251 261 269 276 279 282 286 287 286 285 282 280 278 274 269 264 258 252 247 247 241 236 227 222 219 215 219 214 210 203 201 198 195 184 178
192 197 203 214 223 229 236 247 261 271 276 278 282 287 290 291 290 289 288 285 282 277 273 268 262 255 250 244 247 238 230 222 220 219 216 212 210 204 204 199 195 185 181
203 207 211 221 225 238 247 259 269 275 279 282 288 292 292 292 291 290 289 287 284 280 275 269 265 261 255 250 241 243 235 227 226 218 219 216 212 206 205 201 197 189 184
203 214 223 228 238 244 256 267 274 280 284 290 296 298 299 300 299 299 298 296 293 286 278 274 267 259 257 253 246 234 237 232 225 217 215 216 216 215 209 202 200 195 188
212 216 225 229 241 249 263 270 277 284 291 298 299 303 303 304 306 306 305 303 305 299 293 290 287 279 268 255 252 243 232 241 237 225 217 220 221 216 210 206 204 197 190
218 221 226 229 238 255 268 276 282 288 294 300 307 307 308 308 304 302 302 311 319 319 310 311 301 292 269 264 259 251 238 229 242 242 231 232 226 212 212 208 204 191 188
230 231 234 234 244 258 270 276 284 294 302 308 311 310 310 306 304 303 308 310 314 313 308 308 314 302 295 281 271 257 236 232 230 245 231 230 219 211 213 214 210 183 182
240 237 240 240 251 261 271 276 291 301 307 313 313 313 310 309 307 305 303 309 314 318 318 314 317 314 305 301 287 260 230 219 223 236 228 223 221 208 212 214 191 177 162
236 238 237 241 252 261 271 278 294 303 310 314 314 315 314 312 308 299 296 306 317 320 327 359 0 339 312 298 276 210 209 206 220 233 232 222 218 210 209 201 182 180 192
235 237 237 240 252 260 268 277 292 304 311 316 317 315 314 318 315 314 293 304 321 329 16 15 358 339 341 17 118 150 178 197 220 215 226 217 209 197 191 206 204 195 172
239 236 235 238 244 255 264 276 293 305 313 317 315 315 319 323 328 325 307 305 333 29 35 11 17 46 56 78 102 117 175 192 194 200 191 212 194 189 209 194 195 203 170
243 239 235 235 243 251 258 276 294 307 314 315 315 318 320 316 321 320 326 351 5 90 48 72 80 91 84 78 108 131 138 159 167 163 162 182 197 187 185 182 196 168 166
236 235 231 230 236 243 253 276 295 308 316 314 317 317 320 311 318 319 337 75 109 63 87 104 104 90 96 107 112 137 147 151 159 171 163 181 196 210 212 180 183 181 176
231 228 224 225 231 229 249 277 297 311 315 317 317 320 317 324 340 58 102 115 98 100 98 120 118 108 119 111 123 116 119 115 152 173 184 180 165 176 197 214 167 175 159
221 216 213 214 219 223 249 279 299 312 313 322 321 325 328 7 97 116 112 112 114 119 121 137 133 121 119 121 105 86 103 79 179 156 163 174 176 170 166 141 170 158 161
209 203 203 207 214 224 254 280 301 309 315 321 326 336 28 107 124 120 111 106 107 123 143 150 145 134 133 131 110 90 73 82 120 139 127 140 141 152 168 167 169 155 134
200 192 195 199 206 234 264 284 301 303 319 312 330 17 114 133 132 123 126 121 123 143 157 152 151 142 143 140 134 116 83 73 89 120 124 122 134 134 151 146 134 136 143
185 188 190 194 207 232 267 286 296 302 325 320 344 98 143 146 144 125 131 143 152 163 158 150 166 165 159 144 145 129 122 101 104 120 127 120 102 122 149 138 137 139 154
177 179 185 190 214 243 263 286 288 300 323 318 127 142 151 154 148 134 130 157 162 160 169 161 161 180 173 156 154 171 129 147 117 115 132 134 133 129 136 137 148 159 152
174 178 183 191 220 252 267 283 280 296 290 215 163 146 158 162 157 135 129 151 159 152 166 163 168 186 188 184 151 168 126 158 150 143 134 140 141 143 148 151 152 155 157
173 179 187 200 219 249 272 280 274 288 247 193 163 149 166 173 178 185 200 174 181 162 155 181 186 186 193 202 270 228 128 196 183 164 152 144 148 147 155 157 157 161 161
Wind_Speed_850mb
35 33 31 30 26 26 25 23 17 14 14 13 15 15 16 17 19 21 23 25 25 24 23 23 22 24 25 28 29 29 30 36 34 28 26 21 18 23 24 29 24 21 21
30 32 34 31 30 26 25 20 17 17 16 17 18 19 21 21 24 27 31 31 32 32 31 30 29 27 28 28 31 34 37 42 41 31 30 26 22 25 28 28 24 21 20
32 31 31 27 24 20 18 20 18 17 17 18 22 23 25 27 30 34 37 38 38 40 38 38 37 31 33 33 32 34 40 47 45 38 34 31 28 28 30 28 24 22 22
35 29 26 20 16 17 18 18 17 18 20 22 24 29 32 36 38 40 42 44 45 46 45 46 45 38 41 39 38 37 42 51 47 44 40 37 33 33 32 28 24 23 26
35 27 22 18 16 17 18 18 19 19 22 25 30 34 36 38 38 39 39 40 42 44 47 51 54 52 51 45 43 42 43 50 49 48 45 42 35 36 33 30 26 26 29
28 27 22 17 16 17 18 18 18 21 25 29 33 34 35 37 39 40 43 45 46 48 50 52 55 60 58 53 49 48 48 55 55 53 49 45 40 37 37 33 27 28 31
26 27 23 19 17 17 18 17 20 24 27 30 31 33 36 39 42 45 48 51 53 55 57 56 58 60 66 67 48 53 52 52 61 55 51 50 47 42 40 37 33 34 37
21 21 21 18 16 18 18 19 22 25 27 30 31 33 37 41 45 49 53 56 59 60 62 63 63 63 64 66 69 54 56 60 59 55 54 53 51 47 46 44 42 40 41
25 23 21 18 18 18 18 20 22 25 28 29 32 36 41 45 50 53 52 50 49 51 52 52 57 63 66 66 66 74 63 63 67 62 60 58 55 52 51 50 48 44 43
28 28 25 22 20 19 18 19 22 25 26 29 34 38 44 49 48 45 44 44 45 45 32 29 31 34 46 63 66 64 78 64 67 71 74 72 65 58 57 55 53 51 48
34 33 28 25 20 19 19 21 22 24 27 31 36 42 47 45 41 40 39 39 31 31 27 28 29 33 37 42 50 63 64 82 64 68 69 77 67 64 61 58 54 53 50
34 30 27 25 20 20 20 21 21 26 29 34 39 44 44 40 38 37 33 27 27 28 28 33 36 29 25 30 35 41 55 63 71 50 60 60 62 66 62 57 56 51 49
31 29 26 24 22 21 21 21 24 28 32 37 42 43 39 36 36 35 30 28 27 27 27 32 27 19 21 29 30 30 37 44 70 62 53 54 56 64 59 57 51 59 57
36 30 27 27 24 23 22 22 27 30 34 39 42 39 36 35 36 31 26 24 24 24 26 20 22 25 28 25 17 14 20 32 42 52 41 46 56 63 64 55 51 52 49
39 34 31 30 26 24 24 24 29 32 36 40 40 35 34 32 29 21 18 18 18 18 16 21 24 22 15 4 9 11 19 25 24 26 32 41 55 58 60 35 31 57 68
39 38 35 33 28 26 24 25 30 32 36 39 35 31 29 24 23 20 12 9 14 9 14 17 15 16 24 17 15 13 13 23 17 14 21 36 50 37 35 57 51 44 75
38 40 38 32 28 24 24 26 29 33 36 34 29 28 22 22 21 19 10 7 6 10 10 15 15 20 22 14 19 17 18 20 26 21 19 18 29 43 42 34 38 46 60
40 43 38 33 27 24 23 25 27 31 32 28 27 24 22 22 18 11 6 3 15 12 13 13 16 28 23 17 18 20 24 23 28 26 29 32 37 35 36 39 43 52 56
40 43 39 32 28 23 22 23 25 28 26 26 25 21 19 15 8 6 18 20 16 17 13 18 23 25 22 22 29 18 16 10 10 17 26 26 28 29 36 17 54 55 51
38 42 38 32 30 24 20 20 23 24 22 26 20 17 11 6 8 23 21 15 15 19 16 18 20 20 29 26 27 27 13 3 14 14 18 22 20 25 25 28 48 62 46
34 39 39 32 27 20 17 18 20 19 20 22 17 10 4 10 22 23 17 16 21 21 17 13 31 35 34 26 29 33 33 36 22 24 25 26 24 23 25 40 38 40 64
33 39 36 31 23 17 17 17 17 16 18 15 10 4 6 18 23 18 20 19 20 18 16 24 35 30 28 27 32 34 26 42 45 55 25 43 35 37 45 52 62 65 53
34 36 33 28 20 14 16 17 14 13 16 8 5 3 11 22 22 16 18 19 19 19 18 25 22 27 25 23 30 17 15 16 41 56 51 55 54 41 46 46 51 45 44
35 35 31 23 15 14 13 14 13 11 9 4 0 6 16 23 20 10 13 23 15 17 16 21 21 19 26 27 13 11 3 42 28 29 55 51 54 57 52 47 47 42 38
36 35 29 19 12 13 11 13 12 9 5 2 4 9 18 22 19 9 12 18 18 14 16 20 19 24 20 17 1 15 15 29 35 43 54 58 45 48 50 50 48 43 38
35 30 22 15 11 11 12 11 11 9 5 6 7 9 16 20 16 8 5 14 22 19 17 15 22 23 18 15 6 2 3 14 31 45 55 69 67 57 51 47 47 41 38
Wind_Direction_850mb
184 179 179 173 180 181 191 200 210 227 238 244 248 253 261 266 270 273 273 270 267 264 263 262 261 262 257 251 244 228 224 212 207 206 204 194 183 186 179 162 158 148 140
179 177 179 170 181 187 206 217 231 243 253 257 262 266 271 271 273 274 272 271 267 263 260 259 259 262 263 257 245 235 225 210 207 204 194 195 198 187 173 164 162 154 144
185 181 181 187 201 212 212 220 234 252 260 262 269 275 279 279 276 273 273 273 269 264 260 258 256 256 262 259 250 240 228 214 213 206 202 199 200 191 181 178 175 171 162
187 188 189 197 210 212 214 224 239 253 263 270 275 279 279 278 277 276 275 273 269 266 262 257 252 249 249 252 249 243 230 220 217 212 209 208 205 195 190 190 184 175 166
184 195 201 207 215 215 220 234 245 255 266 274 276 276 279 282 283 281 279 276 273 270 266 258 252 247 245 246 244 238 229 219 219 213 212 212 207 201 195 193 189 181 173
184 198 202 215 224 223 231 241 251 261 269 276 279 282 286 287 286 285 282 280 278 274 269 264 258 252 247 247 241 236 227 222 219 215 219 214 210 203 201 198 195 184 178
192 197 203 214 223 229 236 247 261 271 276 278 282 287 290 291 290 289 288 285 282 277 273 268 262 255 250 244 247 238 230 222 220 219 216 212 210 204 204 199 195 185 181
203 207 211 221 225 238 247 259 269 275 279 282 288 292 292 292 291 290 289 287 284 280 275 269 265 261 255 250 241 243 235 227 226 218 219 216 212 206 205 201 197 189 184
203 214 223 228 238 244 256 267 274 280 284 290 296 298 299 300 299 299 298 296 293 286 278 274 267 259 257 253 246 234 237 232 225 217 215 216 216 215 209 202 200 195 188
212 216 225 229 241 249 263 270 277 284 291 298 299 303 303 304 306 306 305 303 305 299 293 290 287 279 268 255 252 243 232 241 237 225 217 220 221 216 210 206 204 197 190
218 221 226 229 238 255 268 276 282 288 294 300 307 307 308 308 304 302 302 311 319 319 310 311 301 292 269 264 259 251 238 229 242 242 231 232 226 212 212 208 204 191 188
230 231 234 234 244 258 270 276 284 294 302 308 311 310 310 306 304 303 308 310 314 313 308 308 314 302 295 281 271 257 236 232 230 245 231 230 219 211 213 214 210 183 182
240 237 240 240 251 261 271 276 291 301 307 313 313 313 310 309 307 305 303 309 314 318 318 314 317 314 305 301 287 260 230 219 223 236 228 223 221 208 212 214 191 177 162
236 238 237 241 252 261 271 278 294 303 310 314 314 315 314 312 308 299 296 306 317 320 327 359 0 339 312 298 276 210 209 206 220 233 232 222 218 210 209 201 182 180 192
235 237 237 240 252 260 268 277 292 304 311 316 317 315 314 318 315 314 293 304 321 329 16 15 358 339 341 17 118 150 178 197 220 215 226 217 209 197 191 206 204 195 172
239 236 235 238 244 255 264 276 293 305 313 317 315 315 319 323 328 325 307 305 333 29 35 11 17 46 56 78 102 117 175 192 194 200 191 212 194 189 209 194 195 203 170
243 239 235 235 243 251 258 276 294 307 314 315 315 318 320 316 321 320 326 351 5 90 48 72 80 91 84 78 108 131 138 159 167 163 162 182 197 187 185 182 196 168 166
236 235 231 230 236 243 253 276 295 308 316 314 317 317 320 311 318 319 337 75 109 63 87 104 104 90 96 107 112 137 147 151 159 171 163 181 196 210 212 180 183 181 176
231 228 224 225 231 229 249 277 297 311 315 317 317 320 317 324 340 58 102 115 98 100 98 120 118 108 119 111 123 116 119 115 152 173 184 180 165 176 197 214 167 175 159
221 216 213 214 219 223 249 279 299 312 313 322 321 325 328 7 97 116 112 112 114 119 121 137 133 121 119 121 105 86 103 79 179 156 163 174 176 170 166 141 170 158 161
209 203 203 207 214 224 254 280 301 309 315 321 326 336 28 107 124 120 111 106 107 123 143 150 145 134 133 131 110 90 73 82 120 139 127 140 141 152 168 167 169 155 134
200 192 195 199 206 234 264 284 301 303 319 312 330 17 114 133 132 123 126 121 123 143 157 152 151 142 143 140 134 116 83 73 89 120 124 122 134 134 151 146 134 136 143
185 188 190 194 207 232 267 286 296 302 325 320 344 98 143 146 144 125 131 143 152 163 158 150 166 165 159 144 145 129 122 101 104 120 127 120 102 122 149 138 137 139 154
177 179 185 190 214 243 263 286 288 300 323 318 127 142 151 154 148 134 130 157 162 160 169 161 161 180 173 156 154 171 129 147 117 115 132 134 133 129 136 137 148 159 152
174 178 183 191 220 252 267 283 280 296 290 215 163 146 158 162 157 135 129 151 159 152 166 163 168 186 188 184 151 168 126 158 150 143 134 140 141 143 148 151 152 155 157
173 179 187 200 219 249 272 280 274 288 247 193 163 149 166 173 178 185 200 174 181 162 155 181 186 186 193 202 270 228 128 196 183 164 152 144 148 147 155 157 157 161 161